Regional Weather Roundup
Issued by NWS

Home | Current Version | Previous Version | Graphics & Text | Print | Product List | Glossary On
Versions: 1 2 3 4 5 6 7 8 9 10 11 12 13 14 15 16 17 18 19 20 21 22 23 24 25 26 27
000
ASUS45 KSLC 290310
RWRUT

UTAH REGIONAL WEATHER ROUNDUP
NATIONAL WEATHER SERVICE SALT LAKE CITY UT
900 PM MDT THU JUL 28 2016

UTZ001>011-023>025-290400-

NORTHERN UTAH

CITY           SKY/WX    TMP DP  RH WIND       PRES   REMARKS
BRIGHAM CITY     N/A     88  24   9 N9        30.02S
HILL AFB       NOT AVBL
LOGAN          CLEAR     78  49  35 NW7       30.04R
OGDEN          CLEAR     87  39  18 N3        30.02S
PROVO AIRPORT  CLEAR     88  46  23 NW7       30.02F
SALT LAKE CITY PTCLDY    92  37  14 N7        29.99F
VERNAL         CLEAR     87  28  12 N15       30.05R
WENDOVER       CLEAR     91  39  16 CALM      30.01R
HEBER CITY     CLEAR     73  39  29 CALM      30.12S
WEST JORDAN    CLEAR     88  39  18 CALM      30.04F

$$

UTZ012>022-026-027-290400-

SOUTHERN/CENTRAL UTAH

CITY           SKY/WX    TMP DP  RH WIND       PRES   REMARKS
BLANDING       MOCLDY    85  30  14 N8        30.18S
BRYCE CANYON   PTCLDY    72  37  28 SW3       30.33R
CEDAR CITY     MOCLDY    85  38  18 SW14G22   30.13R
DELTA          CLEAR     90  27  10 N10       30.02S
MILFORD        PTCLDY    88  23   9 N7        30.03S
MOAB/CYNLANDS  PTCLDY    92  25   9 SW6       29.95R
PRICE          CLEAR     87  27  11 NW9       30.13R
ST GEORGE      CLEAR    102  41  12 W7        29.89F HX  97

$$

REGIONAL REPORTS     COLORADO/ARIZONA

CITY           SKY/WX    TMP DP  RH WIND       PRES   REMARKS
CRAIG, CO      CLEAR     76  33  21 NW3       30.14R
GRAND JUNCTION CLEAR     82  31  15 E3        29.98S
RIFLE          CLEAR     83  29  14 S3        30.07R
MONTROSE       CLEAR     86  36  16 SW5       30.11R
CORTEZ         CLOUDY    90  28  11 MISG      30.11F
PAGE, AZ       MOCLDY    99  29   8 VRB7      29.96R HX  93
GRAND CANYON   CLOUDY    71  54  54 CALM      30.25S
KINGMAN        MOCLDY    91  45  20 E20G26    29.99R
FLAGSTAFF      CLOUDY    76  43  30 W7        30.27S

$$

REGIONAL REPORTS    NEVADA/IDAHO/WYOMING

CITY           SKY/WX    TMP DP  RH WIND       PRES   REMARKS
LAS VEGAS, NV  MOCLDY   107  39  10 CALM      29.77R HX 101
ELY            MOCLDY    81  28  14 NW7       30.18S
ELKO           CLEAR     90  30  11 NW7       30.06R
POCATELLO, ID  CLEAR     82  38  20 S10       30.03F
BURLEY         CLEAR     75  51  43 W9        30.01S
EVANSTON, WY   CLEAR     75  31  19 W8        30.28R
ROCK SPRINGS   CLEAR     76  37  24 NE13      30.22R
KEMMERER         N/A    N/A N/A N/A NW8       30.30R

$$




USA.gov is the U.S. government's official web portal to all federal, state and local government web resources and services.